• In Hungary
  • List of Countries
  • For 7 days
  • Water Temperature
  • Satellite Maps
  • Weather Map
  • News
  • Weather Widgets
  • user-avatar
    Login

    Hourly Weather Salta

    Today, 23 October, Tuesday

    Time Temperature Precipitation Wind Pressure Humidity
    00:00 +21°C° 0.6 mm 2 mps 650 mmHg 88%
    01:00 +21°C° 0.6 mm 2 mps 650 mmHg 89%
    02:00 +20°C° 0 mm 2 mps 650 mmHg 89%
    03:00 +20°C° 0.5 mm 2 mps 650 mmHg 89%
    04:00 +20°C° 0.5 mm 2 mps 651 mmHg 89%
    05:00 +19°C° 0.5 mm 2 mps 651 mmHg 90%
    06:00 +20°C° 0.1 mm 2 mps 651 mmHg 88%
    07:00 +20°C° 0.1 mm 2 mps 651 mmHg 87%
    08:00 +20°C° 0.1 mm 2 mps 652 mmHg 85%
    09:00 +20°C° 0.1 mm 2 mps 652 mmHg 82%
    10:00 +21°C° 0.1 mm 2 mps 652 mmHg 79%
    11:00 +21°C° 0.1 mm 3 mps 652 mmHg 75%
    12:00 +21°C° 0.1 mm 3 mps 651 mmHg 75%
    13:00 +21°C° 0.1 mm 3 mps 650 mmHg 74%
    14:00 +21°C° 0.1 mm 3 mps 650 mmHg 74%
    15:00 +21°C° 0 mm 3 mps 650 mmHg 75%
    16:00 +21°C° 0 mm 3 mps 649 mmHg 77%
    17:00 +20°C° 0 mm 2 mps 649 mmHg 78%
    18:00 +20°C° 0 mm 2 mps 650 mmHg 80%
    19:00 +19°C° 0 mm 2 mps 650 mmHg 82%
    20:00 +19°C° 0 mm 2 mps 651 mmHg 84%
    21:00 +19°C° 0 mm 1 mps 651 mmHg 84%
    22:00 +19°C° 0 mm 1 mps 651 mmHg 85%
    23:00 +19°C° 0 mm 1 mps 651 mmHg 85%

    Tomorrow, 24 October, Wednesday

    Time Temperature Precipitation Wind Pressure Humidity
    00:00 +19°C° 0 mm 1 mps 651 mmHg 84%
    01:00 +18°C° 0 mm 1 mps 651 mmHg 84%
    02:00 +18°C° 0 mm 1 mps 650 mmHg 84%
    03:00 +18°C° 0 mm 1 mps 650 mmHg 83%
    04:00 +16°C° 0 mm 0 mps 650 mmHg 82%
    05:00 +16°C° 0 mm 0 mps 650 mmHg 81%
    06:00 +20°C° 0 mm 1 mps 651 mmHg 73%
    07:00 +21°C° 0 mm 1 mps 652 mmHg 65%
    08:00 +23°C° 0 mm 1 mps 652 mmHg 57%
    09:00 +24°C° 0 mm 1 mps 652 mmHg 53%
    10:00 +26°C° 0 mm 2 mps 652 mmHg 49%
    11:00 +27°C° 0 mm 2 mps 652 mmHg 45%
    12:00 +28°C° 0 mm 3 mps 652 mmHg 44%
    13:00 +29°C° 0 mm 3 mps 651 mmHg 44%
    14:00 +29°C° 0 mm 3 mps 651 mmHg 44%
    15:00 +28°C° 0 mm 3 mps 650 mmHg 49%
    16:00 +27°C° 0 mm 3 mps 649 mmHg 54%
    17:00 +26°C° 0 mm 3 mps 649 mmHg 59%
    18:00 +25°C° 0.1 mm 3 mps 649 mmHg 67%
    19:00 +24°C° 0.1 mm 2 mps 649 mmHg 74%
    20:00 +21°C° 0.1 mm 2 mps 650 mmHg 82%
    21:00 +21°C° 0.1 mm 2 mps 650 mmHg 83%
    22:00 +22°C° 0.1 mm 1 mps 651 mmHg 84%
    23:00 +21°C° 0.1 mm 1 mps 651 mmHg 86%

    Day after tomorrow, 25 October, Thursday

    Time Temperature Precipitation Wind Pressure Humidity
    00:00 +21°C° 0.1 mm 1 mps 651 mmHg 86%
    01:00 +21°C° 0.1 mm 1 mps 651 mmHg 87%
    02:00 +21°C° 0.1 mm 1 mps 650 mmHg 88%
    03:00 +20°C° 0.1 mm 1 mps 650 mmHg 88%
    04:00 +20°C° 0.1 mm 1 mps 650 mmHg 88%
    05:00 +20°C° 0.1 mm 1 mps 650 mmHg 88%
    06:00 +21°C° 0.1 mm 1 mps 651 mmHg 83%
    07:00 +22°C° 0.1 mm 1 mps 651 mmHg 78%
    08:00 +23°C° 0.1 mm 2 mps 652 mmHg 72%
    09:00 +23°C° 0.1 mm 2 mps 652 mmHg 70%
    10:00 +24°C° 0.1 mm 2 mps 652 mmHg 68%
    11:00 +24°C° 0.1 mm 3 mps 652 mmHg 66%
    12:00 +25°C° 0.1 mm 3 mps 651 mmHg 63%
    13:00 +26°C° 0.1 mm 3 mps 650 mmHg 61%
    14:00 +26°C° 0.1 mm 3 mps 650 mmHg 58%
    15:00 +26°C° 0.1 mm 3 mps 649 mmHg 62%
    16:00 +25°C° 0.1 mm 3 mps 648 mmHg 65%
    17:00 +24°C° 0.1 mm 3 mps 648 mmHg 68%
    18:00 +22°C° 0.1 mm 3 mps 649 mmHg 73%
    19:00 +21°C° 0.1 mm 2 mps 649 mmHg 78%
    20:00 +20°C° 0.1 mm 2 mps 650 mmHg 83%
    21:00 +20°C° 0.1 mm 2 mps 650 mmHg 84%
    22:00 +19°C° 0.1 mm 2 mps 651 mmHg 85%
    23:00 +19°C° 0.1 mm 2 mps 651 mmHg 85%

    26 October, Friday

    Time Temperature Precipitation Wind Pressure Humidity
    00:00 +19°C° 0 mm 2 mps 651 mmHg 86%
    01:00 +19°C° 0 mm 1 mps 650 mmHg 86%
    02:00 +19°C° 0 mm 1 mps 650 mmHg 86%
    03:00 +19°C° 0 mm 1 mps 650 mmHg 85%
    04:00 +19°C° 0 mm 1 mps 650 mmHg 85%
    05:00 +19°C° 0 mm 1 mps 650 mmHg 84%
    06:00 +20°C° 0 mm 1 mps 651 mmHg 79%
    07:00 +21°C° 0 mm 1 mps 652 mmHg 73%
    08:00 +20°C° 0 mm 2 mps 652 mmHg 68%
    09:00 +23°C° 0 mm 2 mps 652 mmHg 64%
    10:00 +24°C° 0 mm 2 mps 652 mmHg 61%
    11:00 +25°C° 0 mm 3 mps 652 mmHg 58%
    12:00 +25°C° 0.1 mm 3 mps 652 mmHg 59%
    13:00 +25°C° 0.1 mm 3 mps 651 mmHg 60%
    14:00 +25°C° 0.1 mm 3 mps 651 mmHg 61%
    15:00 +24°C° 0.1 mm 3 mps 650 mmHg 63%
    16:00 +24°C° 0.1 mm 3 mps 650 mmHg 66%
    17:00 +23°C° 0.1 mm 2 mps 649 mmHg 68%
    18:00 +21°C° 0.1 mm 2 mps 650 mmHg 73%
    19:00 +20°C° 0.1 mm 2 mps 651 mmHg 78%
    20:00 +19°C° 0.1 mm 2 mps 651 mmHg 83%
    21:00 +19°C° 0.2 mm 2 mps 652 mmHg 84%
    22:00 +20°C° 0.2 mm 1 mps 652 mmHg 85%
    23:00 +20°C° 0.2 mm 1 mps 653 mmHg 86%

    27 October, Saturday

    Time Temperature Precipitation Wind Pressure Humidity
    00:00 +20°C° 0.1 mm 1 mps 652 mmHg 87%
    01:00 +19°C° 0.1 mm 1 mps 652 mmHg 87%
    02:00 +19°C° 0.1 mm 1 mps 651 mmHg 87%
    03:00 +19°C° 0.1 mm 1 mps 651 mmHg 87%
    04:00 +19°C° 0.1 mm 1 mps 651 mmHg 88%
    05:00 +19°C° 0.1 mm 1 mps 651 mmHg 88%
    06:00 +19°C° 0 mm 1 mps 652 mmHg 84%
    07:00 +19°C° 0 mm 2 mps 652 mmHg 81%
    08:00 +19°C° 0 mm 2 mps 652 mmHg 77%
    09:00 +20°C° 0 mm 2 mps 652 mmHg 74%
    10:00 +21°C° 0 mm 2 mps 652 mmHg 70%
    11:00 +23°C° 0 mm 2 mps 652 mmHg 66%
    12:00 +23°C° 0.1 mm 2 mps 651 mmHg 67%
    13:00 +23°C° 0.1 mm 2 mps 650 mmHg 67%
    14:00 +22°C° 0.1 mm 3 mps 649 mmHg 67%
    15:00 +23°C° 0.1 mm 2 mps 649 mmHg 69%
    16:00 +23°C° 0.1 mm 2 mps 648 mmHg 71%
    17:00 +21°C° 0.1 mm 2 mps 648 mmHg 73%
    18:00 +21°C° 0.1 mm 2 mps 648 mmHg 77%
    19:00 +20°C° 0.1 mm 2 mps 649 mmHg 80%
    20:00 +20°C° 0.1 mm 1 mps 650 mmHg 83%
    21:00 +20°C° 0.1 mm 1 mps 650 mmHg 84%
    22:00 +20°C° 0.1 mm 1 mps 650 mmHg 84%
    23:00 +20°C° 0.1 mm 1 mps 651 mmHg 85%

    28 October, Sunday

    Time Temperature Precipitation Wind Pressure Humidity
    00:00 +20°C° 0.1 mm 1 mps 650 mmHg 86%
    01:00 +19°C° 0.1 mm 1 mps 650 mmHg 87%
    02:00 +19°C° 0.1 mm 1 mps 649 mmHg 88%
    03:00 +19°C° 0 mm 1 mps 649 mmHg 87%
    04:00 +19°C° 0 mm 1 mps 650 mmHg 86%
    05:00 +19°C° 0 mm 1 mps 650 mmHg 85%
    06:00 +20°C° 0.1 mm 1 mps 650 mmHg 83%
    07:00 +20°C° 0.1 mm 1 mps 651 mmHg 80%
    08:00 +20°C° 0.1 mm 1 mps 652 mmHg 77%
    09:00 +20°C° 0.1 mm 2 mps 652 mmHg 74%
    10:00 +21°C° 0.1 mm 2 mps 651 mmHg 71%
    11:00 +23°C° 0.1 mm 2 mps 651 mmHg 67%
    12:00 +23°C° 0.1 mm 2 mps 651 mmHg 68%
    13:00 +23°C° 0.1 mm 2 mps 650 mmHg 69%
    14:00 +23°C° 0.1 mm 2 mps 649 mmHg 69%
    15:00 +21°C° 0.1 mm 2 mps 649 mmHg 72%
    16:00 +21°C° 0.1 mm 2 mps 648 mmHg 75%
    17:00 +20°C° 0.1 mm 2 mps 648 mmHg 78%
    18:00 +20°C° 0 mm 2 mps 648 mmHg 80%
    19:00 +20°C° 0 mm 1 mps 649 mmHg 82%
    20:00 +20°C° 0 mm 1 mps 650 mmHg 84%
    21:00 +19°C° 0 mm 1 mps 650 mmHg 85%
    22:00 +19°C° 0 mm 1 mps 650 mmHg 86%
    23:00 +19°C° 0 mm 1 mps 650 mmHg 87%

    29 October, Monday

    Time Temperature Precipitation Wind Pressure Humidity
    00:00 +18°C° 0 mm 1 mps 650 mmHg 87%
    01:00 +18°C° 0 mm 1 mps 649 mmHg 86%
    02:00 +16°C° 0 mm 0 mps 649 mmHg 86%
    03:00 +18°C° 0 mm 1 mps 649 mmHg 84%
    04:00 +18°C° 0 mm 1 mps 649 mmHg 83%
    05:00 +18°C° 0 mm 1 mps 649 mmHg 82%
    06:00 +19°C° 0 mm 1 mps 650 mmHg 76%
    07:00 +20°C° 0 mm 1 mps 650 mmHg 70%
    08:00 +21°C° 0 mm 2 mps 651 mmHg 64%
    09:00 +23°C° 0 mm 2 mps 651 mmHg 60%
    10:00 +25°C° 0 mm 2 mps 651 mmHg 56%
    11:00 +26°C° 0 mm 3 mps 651 mmHg 52%
    12:00 +27°C° 0 mm 3 mps 650 mmHg 50%
    13:00 +28°C° 0 mm 3 mps 650 mmHg 47%
    14:00 +29°C° 0 mm 3 mps 649 mmHg 45%
    15:00 +28°C° 0 mm 3 mps 649 mmHg 47%
    16:00 +28°C° 0 mm 3 mps 648 mmHg 50%
    17:00 +27°C° 0 mm 3 mps 648 mmHg 53%
    18:00 +26°C° 0 mm 3 mps 648 mmHg 60%
    19:00 +24°C° 0 mm 2 mps 648 mmHg 67%
    20:00 +21°C° 0 mm 2 mps 649 mmHg 74%
    21:00 +21°C° 0 mm 2 mps 649 mmHg 77%
    22:00 +21°C° 0 mm 1 mps 649 mmHg 79%
    23:00 +21°C° 0 mm 1 mps 649 mmHg 81%
    Show more